215P/NEAT (2019)

Japanese version
Home page
Updated on November 10, 2019

---------------------------------------------------------------------

* Profile

* Pictures

* Orbital Elements

Epoch 2019 Nov. 13.0 TT = JDT 2458800.5
T 2019 Nov. 18.00600 TT                                 MPCW
q   3.6047277            (2000.0)            P               Q
n   0.10939039     Peri.  262.02340     +0.73737257     +0.65782197
a   4.3299539      Node    56.69243     -0.52452748     +0.70076374
e   0.1674905      Incl.   10.58130     -0.42562027     +0.27604426
P   9.01
From 335 observations 1994 Sept. 11-2019 Oct. 30, mean residual 0".6.
     Nongravitational parameters Y1 = +0.04, Y2 = -0.0043.

* Magnitudes Graph

        m1 = 4.0 + 5 log d + 21.0 log r

---------------------------------------------------------------------

The orbital elements are published on M.P.E.C. 2019-V116.
The magnitudes graphs are made with Comet for Windows.

---------------------------------------------------------------------

Copyright(C) Seiichi Yoshida (comet@aerith.net). All rights reserved.